Regional Weather Roundup
Issued by NWS Green Bay, WI

Home | Current Version | Previous Version | Text Only | Print | Product List | Glossary On
Versions: 1 2 3 4 5 6 7 8 9 10 11 12 13 14 15 16 17 18 19 20 21 22 23 24 25 26 27 28 29 30 31 32 33 34 35 36 37 38 39 40 41 42 43 44 45 46 47 48 49 50
000
ASUS43 KGRB 281511
RWRGRB

NORTH-CENTRAL AND NORTHEAST WISCONSIN REGIONAL WEATHER ROUNDUP
NATIONAL WEATHER SERVICE GREEN BAY WI
1000 AM CDT TUE JUL 28 2015

WIZ005-009-010>012-018-019-281600-
NORTH CENTRAL WISCONSIN

CITY           SKY/WX    TMP DP  RH WIND       PRES   REMARKS
IRONWOOD       CLOUDY    73  64  73 S12G17    29.88F
MANITOWISH WTR CLOUDY    70  64  80 S9        29.97F
ARBOR VITAE    CLOUDY    72  64  75 S9        29.98F
EAGLE RIVER    CLOUDY    72  61  67 S6        30.00S
LAND O LAKES   CLOUDY    73  61  65 S8G18     30.01S
RHINELANDER    CLOUDY    73  62  68 S9        30.01S
PHILLIPS       CLOUDY    71  63  76 S10       29.97S
ANTIGO         PTSUNNY   75  64  69 S12       30.04R
TOMAHAWK       CLOUDY    72  63  73 S6        30.01S
MERRILL        NOT AVBL
$$

WIZ013-073-281600-
NORTHEAST WISCONSIN

CITY           SKY/WX    TMP DP  RH WIND       PRES   REMARKS
IRON MOUNTAIN  PTSUNNY   79  62  56 S10       30.00F
MARINETTE      PTSUNNY   81  63  54 S8        30.00S
OCONTO         MOSUNNY   79  66  64 SE8       30.00F
$$

WIZ017-030-035>037-045-281600-
CENTRAL WISCONSIN

CITY           SKY/WX    TMP DP  RH WIND       PRES   REMARKS
MEDFORD        CLOUDY    71  64  79 S10       30.01R
WAUSAU         PTSUNNY   78  63  59 S13       29.99S
MOSINEE        SUNNY     75  64  69 S9        30.01S
MARSHFIELD     CLOUDY    75  63  66 S7        30.01R
WISC RAPIDS    CLOUDY    79  63  57 SW9       30.02R
STEVENS POINT  CLOUDY    77  62  59 S13       30.01S
WAUPACA        PTSUNNY   80  65  60 S7        30.01S
SHAWANO        MOSUNNY   81  66  60 S5        30.01R
CLINTONVILLE   PTSUNNY   79  64  61 S8        30.01R
$$

WIZ038-039-048-051-281600-
FOX VALLEY

CITY           SKY/WX    TMP DP  RH WIND       PRES   REMARKS
NWS GREEN BAY  SUNNY     81  67  62 S10       30.01S
APPLETON       PTSUNNY   79  63  57 S9        30.02R
OSHKOSH        MOSUNNY   82  64  54 S13       30.01R
FOND DU LAC    MOSUNNY   83  66  56 S10       30.01R
$$

WIZ022-050-052-281600-
EAST CENTRAL WISCONSIN

CITY           SKY/WX    TMP DP  RH WIND       PRES   REMARKS
STURGEON BAY   MOSUNNY   79  63  57 S10       30.04S
MANITOWOC      RAIN      79  66  64 MISG      30.02S
SHEBOYGAN      SUNNY     81  66  60 S10       30.01S
$$

LMZ563-521-522-541>543-281600-
LAKESHORE

STATION/POSITION TIME  TEMP    WIND        PRES    VSBY  WAVE
                       AIR SEA DIR/SP/G                  HT/PER
                 (UTC) (F)     (DEG/KT/KT) (MB)    (MI)  (FT/S)
SHEBOYGAN LKSHOR 1500   72     140/ 10/ 10 1016.3R
KEWAUNEE LKSHORE 1400   70     160/  2/  3 1015.8R
ALGOMA MARINA    1412             CALM       N/A
NORTHPORT PIER   1400   76     150/  4/  9 1016.3R
N MID LAKE BUOY  1450   71 70  190/  4/  4 1015.9F         0
S GREEN BAY BUOY 1500   77 76  160/  8/ 10 1017.3F
CHAMBERS ISLAND  1400   79     160/  4/  7 1015.9S
MENOMINEE LKSHOR 1400   75     180/  7/ 10 1016.9R
$$


USA.gov is the U.S. government's official web portal to all federal, state and local government web resources and services.